VOZ616 YBMK-YBBN

Flight info

Callsign VOZ616
Flight time 1h 0m
Altitude 33000
Route MK V153 MUNAR Y61 RUROX Y177 BN
Aircraft B38M/M-SDE1FGHILORVWXY/HB1

Departure

Time 2026-05-07 08:32
Airport Mackay Airport (YBMK)

Arrival

Time 2026-05-07 09:33
Airport Brisbane International Airport (YBBN)
Time Latitude Longitude Altitude Speed Heading
2026-05-07 07:36 -21.17571 149.18250 57 ft 0 kts 289°
2026-05-07 08:27 -21.17569 149.18248 27 ft 1 kts 312°
2026-05-07 08:27 -21.17552 149.18253 30 ft 4 kts 26°
2026-05-07 08:27 -21.17509 149.18260 28 ft 8 kts 339°
2026-05-07 08:28 -21.17453 149.18251 28 ft 9 kts 43°
2026-05-07 08:28 -21.17408 149.18315 27 ft 13 kts 57°
2026-05-07 08:28 -21.17356 149.18401 27 ft 12 kts 56°
2026-05-07 08:28 -21.17283 149.18398 28 ft 12 kts 327°
2026-05-07 08:29 -21.17202 149.18342 28 ft 15 kts 327°
2026-05-07 08:29 -21.17106 149.18276 28 ft 18 kts 328°
2026-05-07 08:29 -21.16995 149.18202 28 ft 20 kts 328°
2026-05-07 08:29 -21.16868 149.18117 26 ft 23 kts 328°
2026-05-07 08:30 -21.16727 149.18020 26 ft 25 kts 328°
2026-05-07 08:30 -21.16578 149.17918 27 ft 26 kts 329°
2026-05-07 08:30 -21.16425 149.17817 27 ft 21 kts 326°
2026-05-07 08:30 -21.16360 149.17743 28 ft 8 kts 323°
2026-05-07 08:31 -21.16337 149.17758 28 ft 2 kts 102°
2026-05-07 08:31 -21.16349 149.17768 28 ft 3 kts 151°
2026-05-07 08:31 -21.16360 149.17775 28 ft 0 kts 149°
2026-05-07 08:31 -21.16366 149.17779 28 ft 3 kts 149°
2026-05-07 08:32 -21.16507 149.17873 27 ft 63 kts 147°
2026-05-07 08:32 -21.17128 149.18292 28 ft 144 kts 147°
2026-05-07 08:32 -21.18114 149.18959 386 ft 181 kts 146°
2026-05-07 08:32 -21.19157 149.19696 1392 ft 181 kts 146°
2026-05-07 08:33 -21.20195 149.20440 2332 ft 185 kts 147°
2026-05-07 08:33 -21.21342 149.21226 2781 ft 208 kts 148°
2026-05-07 08:33 -21.22646 149.22111 3201 ft 234 kts 149°
2026-05-07 08:33 -21.24225 149.22714 3790 ft 251 kts 168°
2026-05-07 08:34 -21.25966 149.23100 4608 ft 256 kts 167°
2026-05-07 08:34 -21.27720 149.23500 5545 ft 261 kts 168°
2026-05-07 08:34 -21.29515 149.23904 6399 ft 265 kts 168°
2026-05-07 08:34 -21.31329 149.24308 7248 ft 269 kts 169°
2026-05-07 08:35 -21.33178 149.24719 8079 ft 274 kts 169°
2026-05-07 08:35 -21.35047 149.25134 8812 ft 281 kts 169°
2026-05-07 08:35 -21.36981 149.25563 9615 ft 287 kts 171°
2026-05-07 08:35 -21.38958 149.26001 10329 ft 295 kts 171°
2026-05-07 08:36 -21.41035 149.26460 10737 ft 315 kts 171°
2026-05-07 08:36 -21.43244 149.26950 11079 ft 335 kts 171°
2026-05-07 08:36 -21.45589 149.27470 11491 ft 352 kts 171°
2026-05-07 08:36 -21.48029 149.28012 12018 ft 363 kts 172°
2026-05-07 08:37 -21.50492 149.28690 12750 ft 371 kts 163°
2026-05-07 08:37 -21.52922 149.29723 13390 ft 380 kts 162°
2026-05-07 08:37 -21.55366 149.30757 14056 ft 386 kts 163°
2026-05-07 08:37 -21.57884 149.31817 14683 ft 392 kts 163°
2026-05-07 08:38 -21.60434 149.32889 15366 ft 396 kts 163°
2026-05-07 08:38 -21.63015 149.33973 16022 ft 401 kts 163°
2026-05-07 08:38 -21.65631 149.35072 16675 ft 406 kts 163°
2026-05-07 08:38 -21.68278 149.36184 17311 ft 411 kts 163°
2026-05-07 08:39 -21.70953 149.37309 17940 ft 415 kts 163°
2026-05-07 08:39 -21.73662 149.38448 18510 ft 420 kts 163°
2026-05-07 08:39 -21.76359 149.39582 19050 ft 424 kts 163°
2026-05-07 08:39 -21.79112 149.40741 19621 ft 426 kts 163°
2026-05-07 08:40 -21.81884 149.41908 20180 ft 429 kts 163°
2026-05-07 08:40 -21.84673 149.43083 20736 ft 432 kts 163°
2026-05-07 08:40 -21.87483 149.44267 21275 ft 435 kts 163°
2026-05-07 08:40 -21.90311 149.45459 21824 ft 438 kts 163°
2026-05-07 08:41 -21.93161 149.46661 22337 ft 442 kts 163°
2026-05-07 08:41 -21.96027 149.47871 22863 ft 444 kts 163°
2026-05-07 08:41 -21.98879 149.49075 23372 ft 447 kts 163°
2026-05-07 08:41 -22.01787 149.50303 23831 ft 450 kts 163°
2026-05-07 08:42 -22.04709 149.51537 24246 ft 453 kts 164°
2026-05-07 08:42 -22.07656 149.52783 24653 ft 456 kts 164°
2026-05-07 08:42 -22.10622 149.54037 25062 ft 460 kts 164°
2026-05-07 08:42 -22.13610 149.55302 25469 ft 463 kts 164°
2026-05-07 08:43 -22.16618 149.56575 25879 ft 466 kts 165°
2026-05-07 08:43 -22.19648 149.57858 26281 ft 469 kts 165°
2026-05-07 08:43 -22.22695 149.59148 26707 ft 472 kts 165°
2026-05-07 08:43 -22.25726 149.60433 27088 ft 475 kts 165°
2026-05-07 08:44 -22.28812 149.61742 27490 ft 478 kts 165°
2026-05-07 08:44 -22.31917 149.63060 27872 ft 481 kts 165°
2026-05-07 08:44 -22.35045 149.64388 28246 ft 484 kts 166°
2026-05-07 08:44 -22.38193 149.65725 28618 ft 487 kts 166°
2026-05-07 08:45 -22.41361 149.67071 28994 ft 490 kts 166°
2026-05-07 08:45 -22.44547 149.68425 29360 ft 493 kts 166°
2026-05-07 08:45 -22.47747 149.69786 29722 ft 496 kts 166°
2026-05-07 08:45 -22.50926 149.71139 30064 ft 499 kts 166°
2026-05-07 08:46 -22.54165 149.72518 30386 ft 502 kts 166°
2026-05-07 08:46 -22.57422 149.73905 30681 ft 505 kts 166°
2026-05-07 08:46 -22.60701 149.75303 30966 ft 508 kts 166°
2026-05-07 08:46 -22.63997 149.76708 31250 ft 511 kts 166°
2026-05-07 08:47 -22.67310 149.78122 31540 ft 513 kts 166°
2026-05-07 08:47 -22.70644 149.79544 31803 ft 517 kts 166°
2026-05-07 08:47 -22.73999 149.80978 32083 ft 520 kts 166°
2026-05-07 08:47 -22.77325 149.82398 32368 ft 522 kts 166°
2026-05-07 08:48 -22.80708 149.83845 32700 ft 523 kts 166°
2026-05-07 08:48 -22.84101 149.85296 33004 ft 525 kts 167°
2026-05-07 08:48 -22.90895 149.88207 33005 ft 524 kts 166°
2026-05-07 08:49 -22.97681 149.91113 33020 ft 525 kts 167°
2026-05-07 08:49 -23.04466 149.94024 33031 ft 524 kts 167°
2026-05-07 08:50 -23.11202 149.96917 33012 ft 524 kts 167°
2026-05-07 08:50 -23.17985 149.99834 33021 ft 524 kts 167°
2026-05-07 08:51 -23.24764 150.02751 33022 ft 524 kts 167°
2026-05-07 08:51 -23.31548 150.05675 33021 ft 524 kts 167°
2026-05-07 08:52 -23.38282 150.08580 33023 ft 524 kts 167°
2026-05-07 08:52 -23.45062 150.11507 33041 ft 524 kts 167°
2026-05-07 08:53 -23.51851 150.14442 33029 ft 525 kts 167°
2026-05-07 08:53 -23.58639 150.17380 33019 ft 525 kts 167°
2026-05-07 08:54 -23.65387 150.20304 33030 ft 525 kts 167°
2026-05-07 08:54 -23.72179 150.23250 33033 ft 525 kts 167°
2026-05-07 08:55 -23.78964 150.26196 33041 ft 525 kts 167°
2026-05-07 08:55 -23.85754 150.29148 33037 ft 525 kts 167°
2026-05-07 08:56 -23.92500 150.32084 33038 ft 525 kts 167°
2026-05-07 08:56 -23.99283 150.35040 33044 ft 525 kts 167°
2026-05-07 08:57 -24.06076 150.38003 33066 ft 525 kts 167°
2026-05-07 08:57 -24.12847 150.40960 33042 ft 524 kts 167°
2026-05-07 08:58 -24.19573 150.43900 33047 ft 524 kts 167°
2026-05-07 08:58 -24.26349 150.46866 33058 ft 524 kts 167°
2026-05-07 08:59 -24.33117 150.49832 33053 ft 523 kts 167°
2026-05-07 08:59 -24.39879 150.52797 33062 ft 524 kts 167°
2026-05-07 09:00 -24.45519 150.55274 33061 ft 525 kts 167°
2026-05-07 09:00 -24.49963 150.57440 33034 ft 537 kts 156°
2026-05-07 09:00 -24.53086 150.59717 33085 ft 540 kts 154°
2026-05-07 09:01 -24.59375 150.64250 33073 ft 541 kts 154°
2026-05-07 09:01 -24.65649 150.68827 33066 ft 541 kts 154°
2026-05-07 09:02 -24.70863 150.72637 33065 ft 541 kts 154°
2026-05-07 09:02 -24.78145 150.77964 33067 ft 540 kts 154°
2026-05-07 09:03 -24.84392 150.82541 33065 ft 539 kts 154°
2026-05-07 09:03 -24.89584 150.86348 33077 ft 540 kts 154°
2026-05-07 09:04 -24.95830 150.90935 33065 ft 539 kts 154°
2026-05-07 09:04 -25.03093 150.96275 33061 ft 542 kts 153°
2026-05-07 09:05 -25.08301 151.00107 33074 ft 543 kts 153°
2026-05-07 09:05 -25.14541 151.04707 33069 ft 543 kts 153°
2026-05-07 09:06 -25.20813 151.09336 33062 ft 542 kts 153°
2026-05-07 09:06 -25.27092 151.13974 33074 ft 543 kts 153°
2026-05-07 09:07 -25.33364 151.18614 33089 ft 542 kts 153°
2026-05-07 09:07 -25.39611 151.23241 33071 ft 545 kts 153°
2026-05-07 09:08 -25.45916 151.27917 33075 ft 545 kts 153°
2026-05-07 09:08 -25.52216 151.32596 33062 ft 545 kts 153°
2026-05-07 09:09 -25.58522 151.37284 33062 ft 546 kts 153°
2026-05-07 09:09 -25.64821 151.41973 33100 ft 546 kts 153°
2026-05-07 09:10 -25.71077 151.46636 33064 ft 546 kts 153°
2026-05-07 09:10 -25.77122 151.51834 33073 ft 554 kts 144°
2026-05-07 09:11 -25.82892 151.57529 33060 ft 555 kts 144°
2026-05-07 09:11 -25.88647 151.63246 33071 ft 555 kts 144°
2026-05-07 09:12 -25.94361 151.68931 33062 ft 555 kts 144°
2026-05-07 09:12 -26.00112 151.74660 33084 ft 556 kts 144°
2026-05-07 09:13 -26.05874 151.80408 33059 ft 557 kts 144°
2026-05-07 09:13 -26.11636 151.86163 33070 ft 557 kts 144°
2026-05-07 09:14 -26.17400 151.91929 33071 ft 556 kts 144°
2026-05-07 09:14 -26.23114 151.97652 33063 ft 557 kts 144°
2026-05-07 09:15 -26.28876 152.03433 33063 ft 558 kts 144°
2026-05-07 09:15 -26.34651 152.09233 33014 ft 560 kts 144°
2026-05-07 09:16 -26.37535 152.12134 32556 ft 556 kts 143°
2026-05-07 09:16 -26.40387 152.15006 31911 ft 550 kts 143°
2026-05-07 09:16 -26.43180 152.17818 31213 ft 547 kts 143°
2026-05-07 09:16 -26.46005 152.20665 30515 ft 547 kts 142°
2026-05-07 09:17 -26.48823 152.23506 29798 ft 545 kts 142°
2026-05-07 09:17 -26.51636 152.26342 28991 ft 544 kts 142°
2026-05-07 09:17 -26.54432 152.29165 28234 ft 542 kts 142°
2026-05-07 09:17 -26.57217 152.31979 27504 ft 539 kts 142°
2026-05-07 09:18 -26.59997 152.34789 26783 ft 536 kts 142°
2026-05-07 09:18 -26.62746 152.37576 25978 ft 532 kts 141°
2026-05-07 09:18 -26.65455 152.40371 25121 ft 526 kts 141°
2026-05-07 09:18 -26.68092 152.43089 24320 ft 520 kts 141°
2026-05-07 09:19 -26.70737 152.45817 23481 ft 512 kts 141°
2026-05-07 09:19 -26.73328 152.48490 22534 ft 501 kts 141°
2026-05-07 09:19 -26.75862 152.51106 21614 ft 491 kts 141°
2026-05-07 09:19 -26.78345 152.53670 20730 ft 480 kts 141°
2026-05-07 09:20 -26.80775 152.56181 19876 ft 470 kts 142°
2026-05-07 09:20 -26.83151 152.58639 19049 ft 461 kts 141°
2026-05-07 09:20 -26.85486 152.61054 18245 ft 452 kts 141°
2026-05-07 09:20 -26.87773 152.63419 17333 ft 443 kts 141°
2026-05-07 09:21 -26.89989 152.65707 16467 ft 435 kts 141°
2026-05-07 09:21 -26.92193 152.67984 15624 ft 427 kts 141°
2026-05-07 09:21 -26.93004 152.68822 15324 ft 424 kts 141°
2026-05-07 09:21 -26.94828 152.70708 14635 ft 418 kts 141°
2026-05-07 09:22 -26.96946 152.72891 13857 ft 410 kts 141°
2026-05-07 09:22 -26.99010 152.75049 12975 ft 403 kts 135°
2026-05-07 09:22 -27.00546 152.77651 12107 ft 402 kts 115°
2026-05-07 09:22 -27.01578 152.80497 11310 ft 395 kts 114°
2026-05-07 09:23 -27.02623 152.83320 10482 ft 390 kts 114°
2026-05-07 09:23 -27.03660 152.86109 9662 ft 384 kts 113°
2026-05-07 09:23 -27.04682 152.88853 8792 ft 379 kts 113°
2026-05-07 09:23 -27.05692 152.91566 7953 ft 374 kts 114°
2026-05-07 09:24 -27.06679 152.94222 7398 ft 362 kts 114°
2026-05-07 09:24 -27.07539 152.96807 7002 ft 347 kts 104°
2026-05-07 09:24 -27.08025 152.99382 6610 ft 333 kts 102°
2026-05-07 09:24 -27.08509 153.01844 6199 ft 323 kts 103°
2026-05-07 09:25 -27.09005 153.04272 5781 ft 315 kts 104°
2026-05-07 09:25 -27.09499 153.06633 5378 ft 306 kts 105°
2026-05-07 09:25 -27.09983 153.08916 5145 ft 298 kts 105°
2026-05-07 09:25 -27.10465 153.11172 4939 ft 296 kts 105°
2026-05-07 09:26 -27.10714 153.13459 4718 ft 296 kts 92°
2026-05-07 09:26 -27.10754 153.15758 4531 ft 292 kts 92°
2026-05-07 09:26 -27.10804 153.18011 4336 ft 286 kts 93°
2026-05-07 09:26 -27.11042 153.20191 4141 ft 278 kts 108°
2026-05-07 09:27 -27.11570 153.22202 4084 ft 265 kts 114°
2026-05-07 09:27 -27.12494 153.23861 4002 ft 247 kts 141°
2026-05-07 09:27 -27.15477 153.24966 3988 ft 226 kts 190°
2026-05-07 09:28 -27.17019 153.24699 4035 ft 223 kts 198°
2026-05-07 09:28 -27.18493 153.24185 4007 ft 221 kts 206°
2026-05-07 09:28 -27.19884 153.23483 3744 ft 217 kts 210°
2026-05-07 09:28 -27.21229 153.22727 3477 ft 214 kts 211°
2026-05-07 09:29 -27.22530 153.21981 3210 ft 206 kts 211°
2026-05-07 09:29 -27.23769 153.21273 2951 ft 199 kts 211°
2026-05-07 09:29 -27.24989 153.20575 2697 ft 194 kts 211°
2026-05-07 09:29 -27.26171 153.19898 2441 ft 186 kts 211°
2026-05-07 09:30 -27.27279 153.19264 2214 ft 170 kts 211°
2026-05-07 09:30 -27.28296 153.18682 2015 ft 162 kts 211°
2026-05-07 09:30 -27.29299 153.18107 1794 ft 161 kts 212°
2026-05-07 09:30 -27.30285 153.17542 1583 ft 156 kts 211°
2026-05-07 09:31 -27.31185 153.17028 1406 ft 138 kts 211°
2026-05-07 09:31 -27.32013 153.16551 1217 ft 132 kts 211°
2026-05-07 09:31 -27.32831 153.16085 1025 ft 133 kts 209°
2026-05-07 09:31 -27.33664 153.15628 866 ft 134 kts 210°
2026-05-07 09:32 -27.34500 153.15147 706 ft 136 kts 210°
2026-05-07 09:32 -27.35339 153.14650 501 ft 136 kts 212°
2026-05-07 09:32 -27.36188 153.14158 347 ft 138 kts 210°
2026-05-07 09:32 -27.37043 153.13677 159 ft 138 kts 210°
2026-05-07 09:33 -27.37886 153.13193 27 ft 130 kts 211°
2026-05-07 09:33 -27.38525 153.12824 25 ft 67 kts 206°
2026-05-07 09:33 -27.38827 153.12642 23 ft 47 kts 211°
2026-05-07 09:33 -27.39022 153.12430 23 ft 37 kts 236°
2026-05-07 09:34 -27.39118 153.12262 26 ft 17 kts 236°
2026-05-07 09:34 -27.39108 153.12142 27 ft 15 kts 324°
2026-05-07 09:34 -27.39020 153.12174 24 ft 15 kts 29°
2026-05-07 09:34 -27.38935 153.12221 28 ft 9 kts
2026-05-07 09:35 -27.38889 153.12187 25 ft 9 kts 303°
2026-05-07 09:35 -27.38874 153.12131 24 ft 9 kts 267°
2026-05-07 09:35 -27.38895 153.12065 24 ft 9 kts 242°
2026-05-07 09:35 -27.38936 153.12011 26 ft 7 kts 227°
2026-05-07 09:36 -27.38945 153.11970 25 ft 4 kts 295°
2026-05-07 09:36 -27.38917 153.11956 27 ft 4 kts 355°
2026-05-07 09:36 -27.38894 153.11956 24 ft 2 kts
2026-05-07 09:36 -27.38888 153.11956 24 ft 0 kts